Probability
0 0 0 0 0 0 0 0 0 0 0 0 0 0 0 0 0 0 0 0 0 0 3 6 6 6 6 6 10 10 6 3 3 0 0 0 3 3 3 3 3 0 0 0
0 0 0 0 0 0 0 0 0 0 0 0 0 0 0 0 0 0 0 0 0 0 3 3 6 6 6 6 6 10 10 6 6 3 3 0 0 3 3 3 3 0 0 0
0 0 0 0 0 0 0 0 0 0 0 0 0 0 0 0 0 0 0 0 0 0 3 3 3 3 6 6 6 6 6 6 6 3 3 3 0 3 3 3 3 3 3 0
0 0 0 0 0 0 0 0 0 0 0 0 0 0 0 0 0 0 0 0 0 0 0 0 3 3 3 3 6 6 6 6 6 3 3 3 3 3 3 3 3 3 3 0
0 0 0 0 0 0 0 0 0 0 0 0 0 0 0 0 0 0 0 0 0 0 0 0 3 3 3 3 3 3 6 6 6 3 3 3 3 3 3 3 0 3 3 0
0 0 0 0 0 0 0 0 0 0 0 0 0 0 0 0 0 0 0 0 0 0 0 0 0 3 3 3 3 3 3 3 3 3 3 3 3 3 3 3 3 3 0 0
0 0 0 0 0 0 0 0 0 0 0 0 0 0 0 0 0 0 0 0 0 0 0 0 0 3 3 3 3 3 3 3 3 3 3 3 3 3 3 3 3 3 0 0
0 0 0 0 0 0 0 0 0 0 0 0 0 0 0 0 0 0 0 0 0 0 0 0 0 3 3 3 3 3 3 3 3 3 3 3 3 3 3 3 0 0 0 0
0 0 0 0 0 0 0 0 0 0 0 0 0 0 0 0 0 0 0 0 0 0 0 0 0 0 0 0 3 3 3 3 3 3 3 3 3 3 0 0 0 0 0 0
0 0 0 0 0 0 0 0 0 0 0 0 0 0 0 0 0 0 0 0 0 0 0 0 0 0 0 0 0 3 3 3 3 3 3 3 3 3 3 3 3 0 0 0
0 0 0 0 0 0 0 0 0 0 0 0 0 0 0 0 0 0 0 0 0 0 0 0 0 0 0 0 0 0 0 0 0 0 3 3 0 0 0 0 0 3 3 3
0 0 0 0 0 0 0 0 0 0 0 0 0 0 0 0 0 0 0 0 0 0 0 0 0 0 0 0 0 0 0 0 0 0 0 0 0 0 0 0 0 0 0 0
0 0 0 0 0 0 0 0 0 0 0 0 0 0 0 0 0 0 0 0 0 0 0 0 0 0 0 0 0 0 0 0 0 0 0 0 0 0 0 0 0 0 0 0
0 0 0 0 0 0 0 0 0 0 0 0 0 0 0 0 0 0 0 0 0 0 0 0 0 0 0 0 0 0 0 0 0 0 0 0 0 0 0 0 0 0 0 0
0 0 0 0 0 0 0 0 0 0 0 0 0 0 0 0 0 0 0 0 0 0 0 0 0 0 0 0 0 0 0 0 0 0 0 0 0 0 0 0 0 0 0 0
0 0 0 0 0 0 0 0 0 0 0 0 0 0 0 0 0 0 0 0 0 0 0 0 0 0 0 0 0 0 0 0 0 0 0 0 0 0 0 0 0 0 0 0
0 0 0 0 0 0 0 0 0 0 0 0 0 0 0 0 0 0 0 0 0 0 0 0 0 0 0 0 0 0 0 0 0 0 0 0 0 0 0 0 0 0 0 0
0 0 0 0 0 0 0 0 0 0 0 0 0 0 0 0 0 0 0 0 0 0 0 0 0 0 0 0 0 0 0 0 0 0 0 0 0 0 0 0 0 0 0 0
0 0 0 0 0 0 0 0 0 0 0 0 0 0 0 0 0 0 0 0 0 0 0 0 0 0 0 0 0 0 0 0 0 0 0 0 0 0 0 0 0 0 0 0
0 0 0 0 0 0 0 0 0 0 0 0 0 0 0 0 0 0 0 0 0 0 0 0 0 0 0 0 0 0 0 0 0 0 0 0 0 0 0 0 0 0 0 0
0 0 0 0 0 0 0 0 0 0 0 0 0 0 0 0 0 0 0 0 0 0 0 0 0 0 0 0 0 0 0 0 0 0 0 0 0 0 0 0 0 0 0 0
0 0 0 0 0 0 0 0 0 0 0 0 0 0 0 0 0 0 0 0 0 0 0 0 0 0 0 0 0 0 0 0 0 0 0 0 0 0 0 0 0 0 0 0
0 0 0 0 0 0 0 0 0 0 0 0 0 0 0 0 0 0 0 0 0 0 0 0 0 0 0 0 0 0 0 0 0 0 0 0 0 0 0 0 0 0 0 0
0 0 0 0 0 0 0 0 0 0 0 0 0 0 0 0 0 0 0 0 0 0 0 0 0 0 0 0 0 0 0 0 0 0 0 0 0 0 0 0 0 0 0 0
0 0 0 0 0 0 0 0 0 0 0 0 0 0 0 0 0 0 0 0 0 0 0 0 0 0 0 0 0 0 0 0 0 0 0 0 0 0 0 0 0 0 0 0
0 0 0 0 0 0 0 0 0 0 0 0 0 0 0 0 0 0 0 0 0 0 0 0 0 0 0 0 0 0 0 0 0 0 0 0 0 0 0 0 0 0 0 0
0 0 0 0 0 0 0 0 0 0 0 0 0 0 0 0 0 0 0 0 0 0 0 0 0 0 0 0 0 0 0 0 0 0 0 0 0 0 0 0 0 0 0 0
Height
5778 5778 5778 5778 5779 5779 5779 5779 5779 5779 5779 5778 5777 5776 5775 5774 5773 5772 5772 5771 5771 5770 5770 5770 5770 5770 5770 5770 5770 5770 5771 5771 5772 5772 5772 5773 5773 5774 5774 5774 5775 5775 5775 5775
5772 5772 5772 5772 5773 5773 5773 5772 5772 5771 5771 5770 5769 5768 5768 5767 5766 5765 5764 5764 5764 5763 5763 5762 5762 5762 5762 5762 5762 5762 5763 5763 5763 5764 5764 5764 5765 5765 5765 5766 5766 5766 5767 5767
5766 5766 5766 5766 5767 5766 5766 5765 5764 5763 5764 5762 5761 5760 5760 5759 5758 5757 5757 5756 5756 5755 5755 5754 5754 5754 5754 5754 5754 5754 5754 5754 5755 5755 5755 5756 5756 5756 5757 5757 5757 5757 5758 5758
5760 5760 5760 5761 5759 5759 5759 5758 5757 5756 5755 5753 5753 5752 5751 5751 5750 5750 5749 5749 5748 5748 5747 5746 5746 5745 5745 5745 5745 5745 5745 5745 5746 5746 5746 5746 5747 5747 5747 5748 5748 5748 5748 5749
5754 5753 5753 5753 5752 5752 5751 5751 5749 5748 5747 5745 5744 5744 5743 5742 5742 5741 5741 5740 5740 5739 5739 5738 5737 5737 5736 5736 5736 5737 5737 5737 5737 5737 5737 5738 5738 5738 5738 5739 5739 5739 5739 5740
5747 5746 5746 5747 5746 5745 5745 5743 5742 5740 5739 5738 5736 5736 5736 5735 5734 5733 5732 5732 5731 5730 5730 5729 5729 5728 5728 5728 5728 5728 5728 5728 5728 5728 5728 5729 5729 5729 5729 5729 5730 5730 5730 5730
5740 5739 5739 5739 5738 5738 5738 5737 5735 5733 5731 5730 5729 5728 5727 5726 5725 5725 5724 5723 5723 5722 5721 5720 5720 5719 5719 5718 5718 5718 5718 5718 5718 5718 5718 5719 5719 5719 5720 5720 5720 5720 5721 5721
5733 5732 5734 5732 5731 5731 5730 5728 5727 5725 5724 5722 5721 5719 5718 5717 5717 5716 5715 5715 5714 5713 5712 5711 5711 5710 5709 5709 5709 5708 5708 5708 5708 5708 5708 5709 5709 5710 5710 5710 5710 5711 5711 5711
5727 5728 5726 5725 5724 5723 5722 5721 5720 5718 5716 5715 5713 5712 5710 5709 5708 5707 5707 5706 5705 5704 5703 5702 5701 5700 5700 5699 5699 5698 5698 5698 5698 5697 5698 5698 5699 5699 5699 5700 5700 5700 5701 5700
5719 5719 5718 5717 5716 5716 5714 5713 5712 5710 5708 5707 5705 5703 5702 5701 5699 5699 5698 5697 5696 5694 5693 5693 5691 5690 5690 5689 5688 5688 5687 5687 5687 5687 5687 5687 5688 5688 5689 5689 5689 5689 5690 5690
5712 5712 5711 5710 5709 5708 5707 5705 5704 5702 5701 5699 5697 5696 5694 5693 5691 5690 5689 5688 5687 5685 5684 5682 5681 5680 5679 5678 5678 5677 5677 5677 5677 5676 5677 5677 5677 5678 5678 5678 5678 5679 5679 5678
5706 5705 5704 5704 5702 5701 5699 5698 5696 5695 5693 5691 5690 5688 5686 5684 5683 5682 5680 5679 5677 5676 5674 5673 5671 5670 5669 5668 5667 5667 5666 5666 5666 5666 5666 5666 5666 5667 5667 5667 5667 5667 5667 5667
5698 5697 5697 5696 5695 5693 5692 5690 5689 5687 5686 5684 5682 5680 5678 5677 5675 5673 5672 5670 5669 5667 5665 5664 5662 5661 5659 5658 5657 5656 5656 5656 5655 5655 5655 5655 5655 5656 5656 5656 5656 5656 5656 5656
5690 5690 5689 5689 5687 5686 5684 5682 5681 5680 5678 5676 5675 5673 5671 5669 5667 5665 5663 5662 5660 5658 5656 5655 5653 5651 5650 5648 5647 5647 5646 5646 5645 5645 5645 5644 5644 5645 5645 5645 5645 5645 5644 5644
5683 5683 5682 5681 5680 5678 5677 5675 5674 5672 5671 5669 5667 5665 5663 5661 5659 5657 5655 5653 5651 5650 5648 5646 5644 5643 5641 5640 5638 5638 5637 5636 5636 5635 5635 5634 5634 5634 5634 5634 5634 5634 5633 5633
5676 5676 5675 5674 5673 5671 5670 5668 5667 5665 5664 5662 5660 5658 5656 5654 5652 5650 5648 5645 5643 5641 5639 5638 5636 5634 5633 5631 5630 5629 5628 5627 5626 5625 5625 5624 5623 5623 5623 5623 5623 5623 5623 5622
5669 5669 5668 5667 5666 5664 5663 5661 5660 5658 5657 5655 5653 5651 5649 5646 5644 5642 5640 5637 5635 5633 5631 5629 5628 5626 5624 5623 5621 5620 5619 5618 5616 5615 5615 5614 5613 5613 5613 5613 5612 5612 5612 5612
5662 5661 5661 5660 5659 5657 5656 5654 5653 5651 5649 5648 5646 5644 5641 5639 5636 5634 5632 5630 5628 5626 5623 5621 5619 5617 5616 5614 5612 5611 5610 5608 5607 5606 5605 5604 5604 5603 5602 5602 5602 5601 5601 5601
5655 5654 5653 5652 5651 5650 5649 5647 5645 5644 5642 5640 5638 5636 5634 5631 5629 5626 5624 5622 5620 5618 5616 5613 5611 5609 5607 5605 5603 5601 5600 5599 5598 5597 5596 5595 5594 5593 5592 5592 5591 5591 5591 5591
5647 5647 5646 5645 5644 5642 5641 5639 5638 5636 5634 5633 5631 5629 5627 5624 5622 5619 5617 5614 5612 5610 5608 5605 5603 5601 5598 5596 5594 5593 5592 5590 5589 5588 5587 5586 5584 5583 5582 5582 5581 5581 5580 5580
5640 5639 5638 5637 5636 5635 5633 5632 5630 5629 5627 5625 5624 5622 5620 5617 5615 5613 5610 5608 5605 5603 5600 5598 5596 5593 5591 5589 5587 5585 5584 5582 5580 5579 5578 5576 5575 5574 5573 5572 5571 5571 5570 5570
5632 5631 5631 5629 5628 5627 5626 5624 5623 5622 5620 5618 5616 5614 5613 5610 5608 5606 5604 5601 5599 5596 5594 5591 5589 5587 5584 5582 5580 5578 5576 5574 5572 5570 5569 5567 5566 5565 5564 5563 5562 5561 5560 5559
5625 5624 5623 5622 5621 5620 5618 5617 5616 5614 5613 5611 5609 5607 5605 5603 5601 5599 5597 5594 5592 5589 5587 5584 5582 5580 5577 5575 5573 5570 5568 5566 5564 5562 5560 5559 5557 5556 5555 5554 5552 5551 5550 5550
5617 5616 5615 5614 5613 5612 5611 5610 5608 5607 5605 5603 5601 5599 5597 5595 5593 5591 5589 5587 5584 5582 5580 5577 5575 5572 5569 5567 5565 5563 5560 5558 5556 5554 5552 5550 5549 5547 5546 5545 5543 5542 5541 5540
5609 5608 5607 5607 5605 5604 5603 5602 5600 5599 5597 5595 5593 5592 5589 5588 5586 5584 5581 5579 5577 5574 5572 5569 5567 5564 5561 5559 5557 5555 5552 5550 5548 5546 5544 5542 5540 5539 5537 5536 5534 5533 5532 5531
5601 5600 5599 5598 5598 5596 5595 5594 5592 5591 5589 5587 5585 5583 5581 5580 5578 5576 5573 5571 5568 5566 5563 5561 5558 5556 5553 5551 5549 5546 5544 5542 5540 5537 5535 5533 5531 5530 5528 5526 5525 5524 5522 5521
5593 5592 5591 5590 5589 5588 5587 5585 5584 5582 5580 5579 5577 5575 5573 5571 5569 5567 5565 5563 5560 5557 5555 5552 5549 5547 5545 5542 5540 5538 5536 5533 5531 5529 5527 5525 5523 5521 5519 5517 5516 5514 5513 5512
Wind_Speed
19 20 20 21 21 22 22 22 24 23 24 24 24 23 22 22 23 23 23 24 24 25 26 25 25 25 26 26 27 26 26 26 27 27 28 28 29 29 29 29 29 29 29 30
20 20 21 21 22 23 24 24 24 24 25 24 25 24 24 24 24 24 24 24 24 25 25 26 26 26 26 27 27 27 27 27 28 29 29 30 30 30 30 30 30 30 30 31
20 20 21 22 22 23 24 24 24 25 25 25 26 25 25 25 25 25 25 25 25 25 25 26 27 27 28 28 28 27 28 28 29 29 30 30 30 30 30 31 31 31 31 31
21 21 22 22 23 23 24 25 25 25 25 26 26 26 26 26 26 26 26 26 26 26 27 27 28 28 28 28 28 28 29 29 29 29 30 30 30 30 30 30 30 30 30 30
21 22 23 24 23 24 24 25 26 26 26 26 25 25 26 26 26 26 26 27 27 28 28 27 28 28 28 29 30 30 30 30 30 30 30 30 30 30 31 30 30 30 30 30
23 24 25 25 24 24 25 25 25 25 25 26 27 27 25 26 27 27 27 27 27 27 27 27 27 28 29 29 30 31 31 32 31 30 31 30 31 31 31 31 31 30 31 31
23 24 24 24 24 23 24 24 24 24 24 25 25 26 25 25 26 26 26 26 26 27 27 27 28 29 29 30 31 32 33 33 33 32 31 31 32 31 31 31 31 32 32 32
23 24 24 24 23 23 23 24 24 24 24 24 25 26 26 25 25 26 26 26 27 27 28 28 29 30 30 31 32 33 33 34 34 33 33 31 31 31 31 31 32 33 33 33
22 23 23 24 24 24 24 25 25 25 25 25 25 25 26 27 27 26 26 27 28 29 30 30 30 30 31 31 32 33 34 34 34 34 34 33 32 32 32 33 33 34 34 34
21 21 22 23 23 24 25 25 25 25 25 25 26 26 26 26 27 27 28 28 29 30 30 30 30 31 31 31 32 33 33 33 33 34 34 34 34 33 33 33 34 35 35 35
22 22 23 24 25 25 25 25 25 25 25 25 26 26 26 26 26 26 28 29 29 30 30 30 30 31 31 32 32 32 32 32 33 33 34 34 35 35 34 34 34 35 35 36
23 23 24 23 24 24 24 25 25 25 24 24 25 26 26 27 27 26 27 28 28 28 28 28 29 30 30 30 29 30 31 31 32 33 34 34 35 35 36 36 36 36 35 35
23 23 23 23 23 24 24 24 24 24 24 25 25 26 26 27 27 27 27 27 28 29 28 28 28 29 30 30 29 29 29 30 31 32 33 34 35 35 35 35 36 35 35 35
22 23 23 23 23 24 24 24 23 23 23 24 25 26 26 27 27 27 27 28 29 29 29 28 29 29 29 29 29 29 30 30 30 30 31 31 32 33 34 34 34 34 35 35
22 23 23 23 23 23 23 23 22 22 23 23 24 25 25 26 26 27 27 28 28 28 28 28 28 28 27 27 28 29 29 29 29 30 31 31 31 31 31 32 32 33 33 34
22 22 22 22 22 22 22 22 22 22 22 23 23 24 25 26 26 26 27 27 27 27 27 26 26 27 27 27 28 28 28 28 29 29 30 30 30 30 30 30 31 31 32 33
21 22 22 23 22 23 23 23 23 23 23 23 24 24 24 25 25 26 26 27 26 25 25 25 26 26 27 27 27 28 28 28 28 29 29 29 29 29 30 30 31 30 30 31
21 22 22 22 22 23 23 24 24 24 24 24 25 25 24 25 25 26 26 25 25 25 25 26 26 27 28 28 28 28 28 28 28 28 27 28 28 29 29 30 30 30 30 30
22 22 23 23 23 23 24 24 25 25 25 25 25 25 25 25 25 25 25 25 25 25 25 25 26 27 27 27 27 27 27 27 27 27 27 28 28 29 29 29 29 29 29 30
23 23 24 24 24 23 23 23 23 24 24 24 23 23 24 24 25 24 24 24 24 24 24 25 25 25 25 25 25 25 26 26 27 27 27 27 27 28 28 29 29 29 29 29
23 23 23 24 23 23 23 23 23 23 23 23 23 23 23 23 23 23 23 23 23 23 23 24 24 23 23 24 25 25 25 25 26 26 26 27 27 28 28 28 28 28 28 28
23 23 23 23 23 23 23 23 23 23 23 23 24 23 23 23 23 23 23 23 23 23 23 23 23 23 23 24 24 24 25 25 25 25 25 26 26 26 27 27 28 28 28 28
23 23 23 23 23 23 23 23 23 24 24 24 24 23 23 23 24 24 23 23 23 24 24 24 24 24 24 24 24 24 25 25 24 24 24 24 25 25 26 26 27 27 27 27
23 23 23 23 23 23 23 23 24 24 25 25 24 24 24 23 24 24 24 24 25 25 25 25 25 25 25 25 25 25 25 25 25 25 25 25 25 25 26 26 26 27 27 27
23 23 23 23 23 23 24 24 25 25 25 25 25 25 24 24 24 25 25 25 25 26 26 26 26 26 26 26 26 25 25 25 25 25 25 25 25 26 26 26 26 26 27 27
23 23 23 23 23 24 25 25 25 25 25 25 25 25 25 25 25 26 26 26 26 26 27 26 27 27 27 27 26 26 26 25 25 25 25 25 26 26 26 26 26 26 26 26
23 23 23 23 24 24 24 25 25 25 24 24 25 25 25 25 25 26 26 27 27 27 27 27 27 27 27 27 27 27 27 26 26 25 26 26 26 26 26 26 26 26 26 26
Wind_Direction
266 266 264 262 261 262 264 266 269 273 273 273 274 275 275 274 275 274 273 271 269 269 269 268 268 267 265 264 263 263 263 263 263 262 262 262 263 263 263 264 265 265 266 267
271 269 266 263 262 263 266 270 273 275 274 273 272 273 273 273 274 274 272 272 272 273 271 269 268 267 265 264 263 264 265 265 264 264 264 263 264 265 265 265 265 266 267 267
272 270 269 266 267 267 268 271 274 277 276 273 273 272 272 272 274 274 273 272 273 274 274 272 270 268 265 265 265 265 265 266 266 265 265 264 264 265 266 265 266 266 266 266
270 270 267 270 269 270 271 273 273 275 276 274 272 273 272 273 274 274 273 272 272 272 274 274 273 271 267 266 266 267 267 266 266 266 267 265 265 266 267 266 266 266 266 267
268 270 270 272 272 273 274 274 275 275 277 276 275 274 273 273 272 272 271 271 272 272 273 273 272 272 269 267 267 266 267 267 266 266 266 266 266 265 265 266 266 266 266 266
267 270 272 275 275 276 276 276 276 277 278 277 276 276 274 273 272 272 271 272 272 273 273 272 271 271 269 268 268 267 268 268 266 265 265 265 265 265 266 266 265 264 265 265
269 270 273 275 277 277 277 279 280 280 279 277 278 278 277 275 272 272 273 272 273 273 273 272 271 270 269 268 268 269 269 269 267 265 264 264 264 265 266 266 266 265 265 265
270 271 272 276 278 278 280 280 282 282 280 279 279 279 277 276 274 275 275 274 274 274 274 274 273 272 271 270 269 270 272 270 268 266 264 264 264 264 265 266 267 267 267 267
274 273 274 274 277 280 283 284 282 281 281 282 282 282 279 277 277 276 275 276 276 275 275 275 274 274 273 271 270 271 270 269 269 268 266 266 265 265 265 266 266 267 268 267
275 274 274 275 276 280 283 284 283 282 281 282 281 282 282 280 279 277 276 276 276 277 276 275 275 273 273 273 272 271 271 270 270 268 268 267 267 268 267 267 268 268 268 268
277 276 275 276 277 279 281 283 285 285 285 284 283 283 283 282 281 279 277 277 279 280 280 278 278 276 274 273 271 271 271 271 269 268 268 267 268 269 268 268 268 269 270 269
275 276 277 280 281 282 283 283 284 285 287 286 285 284 284 282 282 282 281 280 281 282 282 281 281 280 279 277 274 272 271 270 270 269 268 268 269 269 269 269 269 269 269 269
274 276 278 281 282 283 285 285 285 285 287 287 286 285 284 284 283 284 283 282 283 283 282 282 282 281 280 279 277 275 273 272 272 270 269 268 268 269 270 270 271 270 269 269
276 278 280 282 284 285 287 288 287 287 288 288 287 286 284 285 285 286 285 284 284 283 282 282 282 282 280 278 277 276 275 275 274 272 272 271 269 270 271 270 270 269 269 268
277 279 282 284 285 286 288 288 288 288 288 289 290 289 288 288 287 287 287 287 286 284 284 283 283 283 282 281 279 278 278 277 276 275 274 273 272 272 271 271 271 270 270 269
278 280 282 284 286 286 287 288 288 288 288 289 291 290 290 290 290 290 289 289 288 286 284 284 284 283 282 282 282 281 280 279 278 277 276 275 274 273 273 274 274 274 273 272
277 279 282 283 284 285 285 286 287 288 288 288 290 291 291 292 293 292 291 290 289 287 286 285 285 284 283 284 283 283 282 281 280 279 277 276 276 275 274 274 274 274 275 273
279 281 282 282 282 283 284 285 286 287 287 288 290 292 293 294 294 294 292 290 290 289 288 287 285 284 284 285 285 284 283 281 280 278 277 277 277 276 275 274 273 274 274 274
279 281 282 283 283 283 284 285 286 287 288 290 291 293 293 293 295 294 292 290 290 290 288 289 288 286 286 286 286 284 283 281 281 280 279 278 278 278 276 274 272 272 273 274
280 281 282 283 283 283 284 285 286 288 289 290 291 292 293 294 295 295 294 293 293 292 290 291 292 291 290 289 287 286 285 284 283 282 281 280 279 278 277 274 273 273 274 274
281 283 283 282 282 283 284 285 286 288 289 290 291 292 292 294 297 298 297 296 296 294 294 294 294 294 293 292 291 291 290 288 287 284 283 282 281 280 279 276 275 275 274 275
280 281 281 282 282 283 284 285 286 288 288 290 292 293 292 294 296 297 296 296 296 296 296 295 295 294 295 294 293 292 292 292 290 288 285 284 283 282 281 279 277 276 276 275
279 280 280 282 283 282 283 285 286 288 290 291 292 292 292 292 294 295 295 295 295 295 296 295 294 293 293 294 294 294 293 293 292 290 288 287 286 284 284 282 280 279 277 277
277 278 279 281 283 282 283 285 286 287 289 289 290 291 292 292 292 294 295 296 296 295 295 295 294 293 293 293 292 293 293 292 290 290 289 288 288 286 285 284 282 281 280 279
275 276 277 279 281 282 282 284 286 287 288 289 290 292 292 291 291 292 293 294 294 295 295 294 294 294 293 293 293 293 293 293 291 290 290 289 289 288 287 285 284 283 283 281
275 276 277 278 280 282 284 286 287 288 288 289 289 291 292 291 290 291 292 293 295 295 295 295 294 294 294 293 293 293 293 293 293 293 293 291 290 289 288 286 285 285 284 282
275 276 277 279 280 282 285 286 287 288 289 289 290 291 291 291 291 290 291 293 294 296 296 297 296 295 294 293 293 293 292 293 293 293 293 293 292 290 288 287 286 285 284 284